Location: Recife
(8.0585°S, 34.8848°W)
Time: 17:15:19
(UTC-03:00)

N. Korean satellite - Pass Details

Date: 24 September 2021
Orbit: 450 x 494 km, 97.3° (Epoch: 28 October)

Event Time Altitude Azimuth Distance (km) Brightness Sun altitude
Rises 04:19:01 0° 4° (N) 2,546 10.2 -12.9°
Reaches altitude 10° 04:21:06 10° 359° (N) 1,676 9.3 -12.4°
Maximum altitude 04:24:39 56° 281° (W) 594 6.6 -11.5°
Drops below altitude 10° 04:28:15 10° 202° (SSW) 1,702 9.1 -10.6°
Sets 04:30:22 0° 197° (SSW) 2,590 10.1 -10.1°
